Location: Andershausen
(51.8462°N, 9.8595°E)
Time: 05:40:30
(UTC+00:00)

MOS 1 Rocket - Pass Details

Date: 18 November 2025
Orbit: 610 x 813 km, 97.4° (Epoch: 11 December)

Event Time Altitude Azimuth Distance (km) Brightness Sun altitude
Rises 17:39:35 0° 181° (S) 2,882 6.6 -20.3°
Reaches altitude 10° 17:41:47 10° 188° (S) 1,997 5.8 -20.6°
Maximum altitude 17:45:58 47° 262° (W) 860 4.2 -21.3°
Drops below altitude 10° 17:50:23 10° 337° (NNW) 2,104 6.0 -22.0°
Sets 17:52:46 0° 343° (NNW) 3,056 6.8 -22.3°
